Hourly Data Report for October 18, 2017

All times are specified in Local Standard Time (LST). Add 1 hour to adjust for Daylight Saving Time where and when it is observed.

WINNIPEG THE FORKS
MANITOBA

49°53'18.008" N
97°07'46.007" W
230.00 m
5023262
71579
XWN

Download Data

Hourly Data (October 2017)
Hourly Data Report for October 18, 2017
Temp Definition
°C
Dew Point Temp Definition
°C
Rel Hum Definition
%
Wind Dir Definition
10's deg

Wind Spd Definition
km/h
Visibility Definition
km
Stn Press Definition
kPa
Hmdx Definition


Wind Chill Definition


Weather Definition


TIME
00:00 14.7 -0.1 36 21 9   96.87     LegendNANA
01:00 13.3 -0.5 39 20 11   96.77     LegendNANA
02:00 13.4 -1.3 36 21 9   96.66     LegendNANA
03:00 13.5 -1.6 35 21 14   96.69     LegendNANA
04:00 16.1 -1.9 29 22 12   96.69     LegendNANA
05:00 16.0 -1.6 30 22 11   96.77     LegendNANA
06:00 15.0 1.6 40 26 13   97.00     LegendNANA
07:00 12.0 1.8 50 25 12   97.14     LegendNANA
08:00 11.1 0.3 47 24 12   97.21     LegendNANA
09:00 10.7 -1.5 43 24 13   97.23     LegendNANA
10:00 11.4 -2.7 37 23 18   97.29     LegendNANA
11:00 12.1 -6.7 26 25 18   97.31     LegendNANA
12:00 13.0 -8.9 21 25 18   97.34     LegendNANA
13:00 14.1 -11.0 17 26 19   97.35     LegendNANA
14:00 14.7 -13.1 13 26 15   97.39     LegendNANA
15:00 14.6 -13.7 13 25 18   97.45     LegendNANA
16:00 14.5 -13.4 13 26 17   97.50     LegendNANA
17:00 13.8 -13.9 13 25 15   97.58     LegendNANA
18:00 13.0 -13.7 14 25 14   97.64     LegendNANA
19:00 12.3 -13.8 15 26 15   97.71     LegendNANA
20:00 11.4 -12.7 17 26 12   97.80     LegendNANA
21:00 10.8 -12.0 19 26 10   97.89     LegendNANA
22:00 9.9 -11.8 20 24 9   97.94     LegendNANA
23:00 8.5 -10.8 24 23 7   98.03     LegendNANA

Notes on Data Quality.

Legend

  • E = Estimated
  • M = Missing
  • NA = Not Available
  • ‡ = Partner data that is not subject to review by the National Climate Archives
Date modified: